TIME,DELAY(SENSOR),PRES,OXYGEN,RAWTEMP,T(OPTODE),TCPHASE,FLUOR,BETA(BETA700),BETA(BETA412),BETA(BETA440),CDOM,C(CSC),ED(ED411.90),ED(ED443.80),ED(ED489.40),ED(ED554.70),LU(LU412.20),LU(LU443.80),LU(LU489.40),LU(LU555.00),COMP,TILTX,TILTY,CHECK
1357165587,5804,856.4899902343750000,160.2496948242187500,428.0278930664062500,9.7466335296630860,39.4097404479980500,51,100,97,80,80,12429,2146962962,2147516489,2147286838,2147503506,2147092306,2146929051,2147702674,2147118820,3458,-1,9,3775
1357169183,5806,973.2299804687500000,191.0668029785156200,496.0956115722656000,7.6505727767944340,38.3948097229003900,52,101,98,79,81,12427,2146964132,2147519634,2147296484,2147516452,2147093284,2146925421,2147718491,2147120064,446,-1,9,28959
1357172783,5807,990.8099975585938000,204.7393951416015600,506.4955139160156000,7.3278350830078125,37.7229614257812500,52,100,97,79,81,12425,2146966976,2147518802,2147297033,2147520502,2147092196,2146920886,2147718930,2147122834,369,-1,9,41721
1357176383,5808,986.5000000000000000,206.9022064208984400,511.5192871093750000,7.1716699600219730,37.6817588806152340,51,100,99,78,81,12425,2146963154,2147519168,2147300242,2147516928,2147094354,2146920685,2147717074,2147119780,18,-1,8,55673
1357179983,5806,986.1699829101562000,211.1230926513672000,514.5385131835938000,7.0777339935302730,37.4856910705566400,51,99,98,80,81,12424,2146963520,2147518710,2147297170,2147514889,2147090258,2146921051,2147718628,2147122285,3551,-1,9,16136
1357183583,5807,986.5200195312500000,212.4523010253906200,517.3795776367188000,6.9892811775207520,37.4589996337890600,51,98,99,80,80,12423,2146964946,2147515556,2147300452,2147518592,2147089590,2146920941,2147720411,2147119908,3454,-1,9,64172
1357187183,5805,987.6300048828125000,213.1598968505859400,517.9207763671875000,6.9724221229553220,37.4268798828125000,52,98,99,79,80,12417,2146965147,2147516827,2147299300,2147518957,2147089334,2146918784,2147722477,2147116928,3337,-1,9,27950
1357190783,5808,993.1500244140625000,213.8668975830078000,518.2852172851562000,6.9610729217529300,37.3924102783203100,52,98,97,78,81,12416,2146964150,2147518217,2147297334,2147519734,2147089124,2146925037,2147722066,2147119908,129,-1,8,65429
1357194383,5806,994.5000000000000000,214.5269927978515600,518.3427124023438000,6.9592819213867190,37.3558616638183600,52,97,97,79,81,12415,2146964717,2147518162,2147296640,2147520356,2147087844,2146929005,2147721545,2147122934,3485,-1,9,37542
1357197983,5807,998.3300170898438000,214.8535003662109400,517.8317871093750000,6.9751958847045900,37.3282585144043000,51,97,100,79,80,12414,2146965933,2147517293,2147300297,2147519798,2147090203,2146930157,2147721526,2147118774,3481,-1,9,56705
1357201583,5804,999.2399902343750000,213.6174011230468800,516.6318969726562000,7.0125651359558105,37.3776397705078100,52,99,98,79,79,12417,2146963648,2147516672,2147297325,2147516644,2147091373,2146926326,2147721097,2147120283,3137,-1,9,17672
1357205183,5805,1004.9699707031250000,211.7035064697265600,515.8826293945312000,7.0358939170837400,37.4760093688964840,52,98,98,77,81,12410,2146961225,2147518436,2147299675,2147514249,2147091017,2146921910,2147722925,2147122002,3375,-1,9,48916
1357208783,5807,1000.3300170898438000,211.7021026611328000,516.7844238281250000,7.0078139305114750,37.4919815063476560,52,99,97,79,81,12412,2146962541,2147519195,2147297472,2147518098,2147090816,2146925467,2147722093,2147121417,3403,-1,9,28367
1357212383,5803,1001.2100219726562000,213.3775024414062500,517.3281860351562000,6.9908809661865230,37.4041595458984400,52,97,98,80,81,12411,2146961435,2147518774,2147299044,2147517860,2147090797,2146924781,2147717522,2147120704,3433,-1,9,2314
1357215983,5805,1005.0200195312500000,211.4172973632812500,515.9273071289062000,7.0345010757446290,37.4931297302246100,51,98,97,78,80,12411,2146964434,2147518921,2147298834,2147517238,2147088301,2146927853,2147724662,2147121545,3345,-1,9,17175
1357219583,5808,1002.7899780273438000,211.9385986328125000,516.3339843750000000,7.0218381881713870,37.4704208374023440,51,97,97,79,81,12407,2146963245,2147517906,2147298349,2147518637,2147091181,2146926098,2147723163,2147121664,34,-1,8,64499
1357223183,5809,999.9500122070312000,213.7718048095703000,517.2553710937500000,6.9931488037109375,37.3800506591796900,50,99,97,78,81,12404,2146962898,2147520438,2147297472,2147517686,2147089078,2146923492,2147719241,2147121270,378,-1,9,10455
1357226783,5807,1002.0800170898438000,214.0890045166015600,517.4492187500000000,6.9871110916137695,37.3651809692382800,51,99,98,79,80,12411,2146961755,2147517979,2147299520,2147516800,2147094491,2146925961,2147720859,2147122011,634,-1,8,9786
1357230383,5804,1002.0300292968750000,214.2590026855468800,517.7625122070312000,6.9773559570312500,37.3607292175293000,51,96,97,78,80,12405,2146961883,2147520905,2147300854,2147516342,2147088548,2146920950,2147717421,2147120109,3153,-1,9,10403
1357233983,5804,999.4699707031250000,216.4927062988281200,519.3369750976562000,6.9283051490783690,37.2605400085449200,51,100,98,79,80,12406,2146963364,2147514806,2147299145,2147519113,2147089536,2146922596,2147723785,2147121197,2528,-1,9,16907
1357237583,5805,998.9899902343750000,218.2147979736328000,520.7235717773438000,6.8850951194763180,37.1880798339843750,52,99,98,79,80,12404,2146962715,2147517760,2147295478,2147519945,2147091739,2146927277,2147718564,2147121856,3459,-1,9,33944
1357241183,5805,1004.1599731445312000,216.8285064697265600,519.3604125976562000,6.9275779724121090,37.2427101135253900,51,101,96,80,81,12405,2146963136,2147518564,2147299026,2147515904,2147090285,2146926610,2147722889,2147121938,2992,-1,9,25803
1357244783,5804,1001.1300048828125000,216.4604949951172000,519.6663818359375000,6.9180421829223630,37.2686614990234400,52,98,98,79,80,12402,2146967058,2147516269,2147295945,2147517430,2147091346,2146923401,2147723574,2147122660,3031,-1,9,54961
1357248383,5804,1004.5000000000000000,216.1999053955078000,518.9750976562500000,6.9395818710327150,37.2716407775878900,51,98,98,77,81,12405,2146962770,2147523044,2147299364,2147516836,2147093275,2146925330,2147719314,2147123117,3069,-1,9,54636
1357251983,5808,1006.5000000000000000,215.0139007568359400,517.7075805664062000,6.9790639877319340,37.3168182373046900,52,98,99,78,82,12402,2146962816,2147518692,2147299126,2147517952,2147091446,2146924498,2147722633,2147121289,3295,-1,9,575
1357255583,5804,1006.6799926757812000,212.8623962402343800,517.5927124023438000,6.9826421737670900,37.4385681152343750,51,99,98,80,81,12402,2146962934,2147518262,2147299346,2147519213,2147089682,2146919506,2147722989,2147123145,3432,-1,9,25460
1357259183,5805,1005.7399902343750000,213.4676055908203000,517.6890869140625000,6.9796400070190430,37.4052886962890600,52,99,96,79,81,12401,2146962532,2147515373,2147300370,2147519414,2147092416,2146926930,2147717924,2147119972,3096,-1,9,23034
1357262783,5804,1003.7100219726562000,214.2429046630859400,519.0657958984375000,6.9367551803588870,37.3852882385253900,52,99,98,78,80,12403,2146964882,2147518884,2147298907,2147520000,2147088310,2146920731,2147718994,2147118957,3258,-1,9,19236
1357266383,5806,999.8900146484375000,214.1840972900390600,519.4119262695312000,6.9259719848632810,37.3941993713378900,52,99,98,78,81,12404,2146962944,2147516690,2147298486,2147519936,2147090185,2146920822,2147724827,2147122029,1081,-1,9,31688
1357269983,5806,1005.4000244140625000,214.7848968505859400,518.3549194335938000,6.9588999748229980,37.3417816162109400,51,103,101,79,80,12401,2146962066,2147521243,2147299986,2147512749,2147090404,2146931556,2147723008,2147122715,534,-1,8,33362
1357273583,5806,1007.3200073242188000,213.8130950927734400,519.3485107421875000,6.9279470443725590,37.4148597717285160,52,98,98,79,81,12398,2146963428,2147517952,2147300041,2147518985,2147091053,2146925549,2147719533,2147120987,116,-1,8,18648
1357277183,5806,1004.7999877929688000,214.6342926025390600,519.1190795898438000,6.9350948333740230,37.3631095886230500,51,102,98,79,81,12399,2146963785,2147517165,2147299483,2147514066,2147092105,2146922898,2147724507,2147120603,520,-1,8,22382
1357280783,5808,1006.9799804687500000,214.5908966064453000,519.2163696289062000,6.9320621490478520,37.3673591613769500,51,98,98,79,81,12400,2146960758,2147519469,2147299712,2147517284,2147089664,2146924022,2147724937,2147117869,488,-1,8,4575
1357284383,5808,1010.5499877929688000,214.5908966064453000,518.6812133789062000,6.9487371444702150,37.3583488464355500,53,99,98,78,80,12393,2146965092,2147518272,2147299986,2147519853,2147089682,2146919725,2147720292,2147121755,391,-1,9,56464
1357287983,5808,1005.5800170898438000,214.0225067138672000,519.1334838867188000,6.9346442222595215,37.3986701965332000,52,99,98,80,82,12398,2146963766,2147516406,2147297947,2147516955,2147092553,2146917568,2147725056,2147120713,847,-1,9,11536
1357291583,5805,1005.5100097656250000,216.1318969726562500,519.9813842773438000,6.9082260131835940,37.2927818298339840,51,99,97,80,81,12398,2146964662,2147516525,2147299145,2147516992,2147090468,2146921581,2147722185,2147120192,406,-1,9,52318
1357295183,5808,1005.9000244140625000,215.0574035644531200,519.2667236328125000,6.9304947853088380,37.3416900634765600,52,97,99,79,80,12399,2146962304,2147518317,2147298944,2147514779,2147091200,2146926244,2147723163,2147121682,961,-1,9,7663
1357298783,5808,1014.3699951171875000,214.4716949462890600,517.4920043945312000,6.9857788085937500,37.3443183898925800,52,100,98,78,80,12395,2146963986,2147520155,2147298358,2147518089,2147089344,2146925357,2147720996,2147121737,2708,-1,9,50543
1357302383,5808,1002.7600097656250000,216.2646026611328000,519.8300781250000000,6.9129400253295900,37.2826004028320300,51,100,98,79,80,12396,2146965485,2147518957,2147301878,2147516571,2147091108,2146920896,2147721170,2147121828,3434,-1,9,15269
1357305983,5803,1002.0599975585938000,217.3462066650390600,521.7791748046875000,6.8521919250488280,37.2560691833496100,51,98,97,79,82,12397,2146964105,2147519707,2147296676,2147518720,2147091200,2146925147,2147723666,2147118637,3088,-1,9,37503
1357309555,5804,1003.7899780273438000,217.6797027587890600,521.4796142578125000,6.8615298271179200,37.2318801879882800,51,100,98,79,82,12399,2146964790,2147519661,2147302893,2147520420,2147088758,2146922733,2147725330,2147120402,3176,-1,9,58807
